Flag for Czech Republic Weather past 2 weeks in Prague, Czech Republic

Now
50 °F

Partly sunny.


Feels Like: 44 °F
Forecast: 38 / 50 °F
Wind: 17 mph from North

Location: Prague Ruzyne Airport

Current Time: Oct 23, 2014 at 2:07:30 PM

Latest Report: Oct 23, 2014 at 1:30 PM


Visibility: N/A

Pressure: 30.07 "Hg

Humidity: 88%

Dew point: 46 °F

Location of PragueLocation

Historic Weather in Prague — Graph

°F

Prague temperature yesterday

Maximum temperature yesterday: 48 °F (at 12:00 AM)
Minimum temperature yesterday: 41 °F (at 12:00 PM)
Average temperature yesterday: 44 °F

Past Weeks' High & Low Weather Summary

 TemperatureHumidityPressure
High70 °F (Oct 9, 4:30 PM)100% (Oct 9, 2:00 AM)30.27 "Hg (Oct 9, 2:00 AM)
Low41 °F (Oct 19, 6:30 AM)55% (Oct 21, 2:00 PM)29.53 "Hg (Oct 21, 10:00 PM)
Average55 °F88%29.92 "Hg
* Reported Oct 8 1:00 PM — Oct 23 1:00 PM, Prague, Weather by CustomWeather, © 2014

Note: Actual official high and low records may vary slightly from our data, if they occured in-between our weather recording intervals... More about our weather records

Advertising

Prague weather history for previous 24 hours

 ConditionsComfort  
Time TempWeatherWind HumidityBarometerVisibility
1:00 PM
Oct 23
50 °FPartly sunny.17 mph88%30.07 "HgN/A
12:30 PM50 °FMostly cloudy.16 mph88%30.07 "HgN/A
12:00 PM50 °FMore clouds than sun.21 mph88%30.07 "HgN/A
11:30 AM50 °FBroken clouds.16 mph88%30.04 "HgN/A
11:00 AM50 °FPartly sunny.15 mph94%30.04 "HgN/A
10:30 AM50 °FCloudy.13 mph94%30.01 "HgN/A
10:00 AM50 °FMostly cloudy.13 mph88%30.01 "HgN/A
9:30 AM50 °FCloudy.13 mph94%30.01 "Hg6 mi
9:00 AM48 °FCloudy.12 mph100%29.98 "Hg4 mi
8:30 AM50 °FLight rain. Mostly cloudy.13 mph94%29.98 "Hg4 mi
8:00 AM50 °FLight rain. Fog.14 mph94%29.95 "Hg3 mi
7:30 AM50 °FLight rain. Fog.17 mph94%29.92 "Hg2 mi
7:00 AM50 °FLight rain. Fog.16 mph94%29.92 "Hg3 mi
6:30 AM50 °FLight rain. Fog.17 mph94%29.89 "Hg3 mi
6:00 AM50 °FLight rain. Fog.17 mph94%29.89 "Hg3 mi
5:30 AM48 °FLight rain. Fog.17 mph100%29.86 "Hg3 mi
5:00 AM48 °FLight rain. Mostly cloudy.15 mph100%29.86 "Hg4 mi
4:30 AM48 °FMostly cloudy.15 mph94%29.83 "Hg4 mi
4:00 AM48 °FLight rain. Mostly cloudy.16 mph94%29.83 "Hg5 mi
3:30 AM48 °FMostly cloudy.16 mph94%29.83 "HgN/A
3:00 AM48 °FMostly cloudy.16 mph94%29.80 "HgN/A
2:30 AM46 °FLight rain. Overcast.16 mph100%29.80 "HgN/A
2:00 AM46 °FLight rain. Mostly cloudy.16 mph93%29.80 "HgN/A
1:30 AM46 °FLight rain. Mostly cloudy.12 mph93%29.77 "HgN/A
1:00 AM45 °FLight rain. Mostly cloudy.14 mph93%29.77 "HgN/A
12:30 AM45 °FLight rain. Mostly cloudy.10 mph93%29.77 "HgN/A
12:00 AM43 °FLight rain. Low clouds.9 mph93%29.77 "HgN/A
11:30 PM
Oct 22
43 °FLight rain. Mostly cloudy.8 mph93%29.77 "Hg6 mi
11:00 PM43 °FLight rain. Mostly cloudy.6 mph93%29.77 "HgN/A
10:30 PM41 °FLight rain. Overcast.8 mph93%29.77 "HgN/A
10:00 PM43 °FLight rain. Overcast.9 mph87%29.77 "HgN/A
9:30 PM43 °FPassing clouds.10 mph87%29.77 "HgN/A
9:00 PM43 °FMostly cloudy.12 mph87%29.77 "HgN/A
8:30 PM43 °FPassing clouds.12 mph87%29.74 "HgN/A
8:00 PM43 °FLight rain. Mostly cloudy.10 mph87%29.74 "HgN/A
7:30 PM43 °FLight rain. Overcast.10 mph81%29.74 "HgN/A
7:00 PM43 °FLight rain. Overcast.13 mph81%29.74 "HgN/A
6:30 PM43 °FOvercast.14 mph81%29.74 "HgN/A
6:00 PM43 °FLight rain. More clouds than sun.13 mph87%29.74 "HgN/A
5:30 PM43 °FLight rain. Mostly cloudy.13 mph87%29.71 "HgN/A
5:00 PM45 °FLight rain. More clouds than sun.13 mph81%29.74 "HgN/A
4:30 PM45 °FLight rain. Mostly cloudy.15 mph81%29.71 "HgN/A
4:00 PM45 °FLight rain. Overcast.17 mph81%29.71 "HgN/A
3:30 PM45 °FLight rain. More clouds than sun.16 mph81%29.71 "HgN/A
3:00 PM45 °FLight rain. Overcast.13 mph81%29.71 "HgN/A
2:30 PM45 °FLight rain. Overcast.13 mph81%29.71 "HgN/A
2:00 PM43 °FLight rain. Overcast.14 mph87%29.71 "HgN/A
Weather by CustomWeather, © 2014

See weather overviewHow to use our weather pages